Home > Weather > Sandnessjøen > Past weeks

Flag for Norway Weather for the Past 2 Weeks in Sandnessjøen, Norway

Now
59 °F

Passing clouds.


Feels Like: 58 °F
Forecast: 44 / 48 °F
Wind: 8 mph from Southeast

Location: Sandnessjoen / Stokka

Current Time: May 3, 2016 at 3:13:42 PM

Latest Report: May 3, 2016 at 2:50 PM


Visibility: N/A

Pressure: 29.86 "Hg

Humidity: 42%

Dew Point: 36 °F

Location of SandnessjøenLocation

Historic Weather in Sandnessjøen — Graph

°F

Sandnessjøen Temperature Yesterday

Maximum temperature yesterday: 57 °F (at 2:20 PM)
Minimum temperature yesterday: 45 °F (at 4:50 AM)
Average temperature yesterday: 52 °F

High & Low Weather Summary for the Past Weeks

 TemperatureHumidityPressure
High57 °F (May 2, 2:20 PM)100% (Apr 23, 5:20 AM)30.24 "Hg (Apr 23, 5:20 AM)
Low32 °F (Apr 22, 9:20 PM)28% (May 2, 2:50 PM)29.39 "Hg (Apr 18, 1:20 PM)
Average44 °F62%29.86 "Hg
* Reported Apr 18 1:20 PM — May 3 1:20 PM, Sandnessjøen, Weather by CustomWeather, © 2016

Note: Actual official high and low records may vary slightly from our data, if they occured in-between our weather recording intervals... More about our weather records

Advertising

Sandnessjøen Weather History for the Previous 24 Hours

Scroll right to see more
 ConditionsComfort  
Time TempWeatherWind HumidityBarometerVisibility
1:20 PM
Tue, May 3
57 °FPassing clouds.6 mph51%29.86 "HgN/A
12:50 PM55 °FPassing clouds.6 mph51%29.86 "HgN/A
12:20 PM57 °FPassing clouds.5 mph48%29.86 "HgN/A
11:50 AM57 °FPassing clouds.6 mph48%29.86 "HgN/A
10:50 AM55 °FPassing clouds.7 mph51%29.86 "HgN/A
10:20 AM54 °FPassing clouds.6 mph54%29.86 "HgN/A
9:50 AM54 °FScattered clouds.5 mph58%29.83 "HgN/A
8:50 AM48 °FPartly sunny.5 mph76%29.83 "HgN/A
8:20 AM50 °FScattered showers. Partly sunny.5 mph71%29.83 "HgN/A
7:50 AM50 °FLight rain. Partly sunny.5 mph71%29.83 "HgN/A
7:20 AM48 °FLight rain. Partly sunny.5 mph76%29.83 "HgN/A
6:50 AM48 °FLight rain. Broken clouds.1 mph71%29.83 "HgN/A
5:50 AM48 °FPartly sunny.2 mph71%29.83 "HgN/A
4:50 AM50 °FPassing clouds.3 mph62%29.83 "HgN/A
10:20 PM
Mon, May 2
54 °FSunny.7 mph44%29.80 "Hg10 mi
9:50 PM54 °FSunny.8 mph44%29.80 "Hg10 mi
9:20 PM54 °FPassing clouds.9 mph44%29.80 "HgN/A
8:50 PM54 °FSunny.7 mph41%29.80 "Hg10 mi
8:20 PM54 °FSunny.12 mph41%29.80 "Hg10 mi
7:50 PM54 °FPassing clouds.10 mph41%29.80 "HgN/A
7:20 PM54 °FPassing clouds.12 mph41%29.80 "HgN/A
6:50 PM54 °FPassing clouds.12 mph41%29.83 "HgN/A
6:20 PM54 °FPassing clouds.10 mph38%29.83 "HgN/A
5:50 PM55 °FPassing clouds.10 mph33%29.86 "HgN/A
5:20 PM57 °FSunny.9 mph29%29.86 "Hg10 mi
4:50 PM57 °FSunny.8 mph29%29.86 "Hg10 mi
4:20 PM55 °FPassing clouds.12 mph28%29.86 "HgN/A
3:20 PM57 °FSunny.10 mph29%29.86 "Hg10 mi
Weather by CustomWeather, © 2016

See weather overviewHow to use our weather pages